When you browse on this site, cookies collect data to enhance your experience and personalize the content and advertising you see.
Visit our Privacy Policy to learn more. By continuing to use the site, you agree to this use of cookies and data.
  • în România
  • Lista ţărilor
  • Pe 7 zile
  • Temperatura apei
  • Hartă satelitară
  • Meteo pe hartă
  • Widget-uri
  • user-avatar
    Intrare

    Meteo pe oră la Pravokumskiy

    Astăzi, 26 Martie, Marţi

    Timp Temperatura Precipitaţii Vânt Presiune Umiditate
    00:00 +5°C° 0 mm 2 m/s 756 mmHg 61%
    01:00 +4°C° 0 mm 2 m/s 756 mmHg 62%
    02:00 +3°C° 0 mm 3 m/s 756 mmHg 63%
    03:00 +3°C° 0 mm 3 m/s 755 mmHg 65%
    04:00 +2°C° 0 mm 3 m/s 756 mmHg 66%
    05:00 +2°C° 0 mm 3 m/s 756 mmHg 67%
    06:00 +1°C° 0 mm 3 m/s 756 mmHg 68%
    07:00 +3°C° 0 mm 4 m/s 756 mmHg 62%
    08:00 +5°C° 0 mm 5 m/s 756 mmHg 56%
    09:00 +6°C° 0 mm 7 m/s 755 mmHg 51%
    10:00 +8°C° 0 mm 7 m/s 755 mmHg 48%
    11:00 +9°C° 0 mm 7 m/s 755 mmHg 46%
    12:00 +10°C° 0 mm 7 m/s 754 mmHg 44%
    13:00 +11°C° 0 mm 7 m/s 754 mmHg 44%
    14:00 +11°C° 0 mm 6 m/s 754 mmHg 44%
    15:00 +11°C° 0 mm 6 m/s 753 mmHg 43%
    16:00 +10°C° 0 mm 6 m/s 753 mmHg 48%
    17:00 +9°C° 0 mm 5 m/s 754 mmHg 53%
    18:00 +8°C° 0 mm 5 m/s 754 mmHg 58%
    19:00 +7°C° 0 mm 5 m/s 754 mmHg 62%
    20:00 +6°C° 0 mm 5 m/s 754 mmHg 66%
    21:00 +5°C° 0 mm 5 m/s 754 mmHg 69%
    22:00 +4°C° 0 mm 4 m/s 754 mmHg 73%
    23:00 +3°C° 0 mm 4 m/s 754 mmHg 76%

    Mâine, 27 Martie, Miercuri

    Timp Temperatura Precipitaţii Vânt Presiune Umiditate
    00:00 +2°C° 0 mm 3 m/s 754 mmHg 79%
    01:00 +2°C° 0 mm 3 m/s 753 mmHg 82%
    02:00 +2°C° 0 mm 3 m/s 753 mmHg 85%
    03:00 +2°C° 0 mm 2 m/s 753 mmHg 87%
    04:00 +2°C° 0 mm 2 m/s 753 mmHg 89%
    05:00 +2°C° 0 mm 2 m/s 753 mmHg 90%
    06:00 +1°C° 0 mm 2 m/s 753 mmHg 92%
    07:00 +3°C° 0 mm 2 m/s 753 mmHg 85%
    08:00 +5°C° 0 mm 2 m/s 753 mmHg 79%
    09:00 +6°C° 0 mm 2 m/s 753 mmHg 72%
    10:00 +9°C° 0 mm 1 m/s 753 mmHg 66%
    11:00 +11°C° 0 mm 1 m/s 752 mmHg 60%
    12:00 +11°C° 0 mm 0 m/s 752 mmHg 54%
    13:00 +13°C° 0 mm 1 m/s 752 mmHg 51%
    14:00 +14°C° 0 mm 1 m/s 752 mmHg 48%
    15:00 +15°C° 0 mm 1 m/s 752 mmHg 44%
    16:00 +14°C° 0 mm 1 m/s 752 mmHg 48%
    17:00 +13°C° 0 mm 1 m/s 752 mmHg 52%
    18:00 +13°C° 0 mm 1 m/s 752 mmHg 56%
    19:00 +12°C° 0 mm 1 m/s 753 mmHg 57%
    20:00 +11°C° 0 mm 1 m/s 753 mmHg 59%
    21:00 +10°C° 0 mm 1 m/s 753 mmHg 61%
    22:00 +10°C° 0 mm 1 m/s 753 mmHg 62%
    23:00 +9°C° 0 mm 2 m/s 753 mmHg 63%

    Poimâine, 28 Martie, Joi

    Timp Temperatura Precipitaţii Vânt Presiune Umiditate
    00:00 +9°C° 0 mm 3 m/s 753 mmHg 64%
    01:00 +8°C° 0 mm 3 m/s 753 mmHg 70%
    02:00 +7°C° 0 mm 4 m/s 754 mmHg 75%
    03:00 +7°C° 0 mm 4 m/s 754 mmHg 80%
    04:00 +7°C° 0 mm 4 m/s 754 mmHg 81%
    05:00 +7°C° 0 mm 4 m/s 754 mmHg 82%
    06:00 +7°C° 0 mm 4 m/s 755 mmHg 84%
    07:00 +7°C° 0 mm 4 m/s 755 mmHg 78%
    08:00 +8°C° 0 mm 5 m/s 756 mmHg 72%
    09:00 +8°C° 0 mm 6 m/s 756 mmHg 66%
    10:00 +9°C° 0 mm 6 m/s 756 mmHg 62%
    11:00 +9°C° 0 mm 6 m/s 756 mmHg 57%
    12:00 +10°C° 0 mm 6 m/s 756 mmHg 53%
    13:00 +10°C° 0 mm 6 m/s 756 mmHg 49%
    14:00 +11°C° 0 mm 6 m/s 756 mmHg 45%
    15:00 +11°C° 0 mm 7 m/s 756 mmHg 41%
    16:00 +10°C° 0 mm 6 m/s 757 mmHg 46%
    17:00 +9°C° 0 mm 5 m/s 757 mmHg 51%
    18:00 +8°C° 0 mm 4 m/s 757 mmHg 56%
    19:00 +7°C° 0.1 mm 4 m/s 758 mmHg 59%
    20:00 +7°C° 0.1 mm 4 m/s 758 mmHg 62%
    21:00 +6°C° 0.1 mm 4 m/s 759 mmHg 65%
    22:00 +7°C° 0 mm 3 m/s 759 mmHg 66%
    23:00 +5°C° 0 mm 3 m/s 759 mmHg 68%

    29 Martie, Vineri

    Timp Temperatura Precipitaţii Vânt Presiune Umiditate
    00:00 +5°C° 0 mm 3 m/s 759 mmHg 69%
    01:00 +5°C° 0 mm 3 m/s 759 mmHg 70%
    02:00 +5°C° 0 mm 3 m/s 759 mmHg 71%
    03:00 +4°C° 0 mm 3 m/s 759 mmHg 72%
    04:00 +4°C° 0 mm 3 m/s 760 mmHg 71%
    05:00 +3°C° 0 mm 3 m/s 760 mmHg 69%
    06:00 +3°C° 0 mm 3 m/s 760 mmHg 68%
    07:00 +3°C° 0 mm 4 m/s 761 mmHg 64%
    08:00 +3°C° 0 mm 4 m/s 761 mmHg 60%
    09:00 +3°C° 0 mm 5 m/s 761 mmHg 57%
    10:00 +3°C° 0 mm 5 m/s 761 mmHg 52%
    11:00 +5°C° 0 mm 5 m/s 761 mmHg 47%
    12:00 +6°C° 0 mm 5 m/s 761 mmHg 42%
    13:00 +6°C° 0 mm 4 m/s 761 mmHg 40%
    14:00 +7°C° 0 mm 4 m/s 761 mmHg 37%
    15:00 +8°C° 0 mm 4 m/s 761 mmHg 35%
    16:00 +8°C° 0 mm 3 m/s 761 mmHg 38%
    17:00 +8°C° 0 mm 3 m/s 761 mmHg 41%
    18:00 +7°C° 0 mm 2 m/s 761 mmHg 45%
    19:00 +7°C° 0 mm 2 m/s 761 mmHg 46%
    20:00 +6°C° 0 mm 2 m/s 762 mmHg 47%
    21:00 +6°C° 0 mm 1 m/s 762 mmHg 49%
    22:00 +6°C° 0 mm 1 m/s 762 mmHg 50%
    23:00 +5°C° 0 mm 1 m/s 762 mmHg 52%

    30 Martie, Sâmbătă

    Timp Temperatura Precipitaţii Vânt Presiune Umiditate
    00:00 +5°C° 0 mm 1 m/s 762 mmHg 53%
    01:00 +4°C° 0 mm 1 m/s 762 mmHg 56%
    02:00 +4°C° 0 mm 1 m/s 762 mmHg 58%
    03:00 +3°C° 0 mm 1 m/s 762 mmHg 60%
    04:00 +3°C° 0 mm 1 m/s 762 mmHg 61%
    05:00 +2°C° 0 mm 2 m/s 762 mmHg 61%
    06:00 +1°C° 0 mm 2 m/s 762 mmHg 62%
    07:00 +3°C° 0 mm 2 m/s 762 mmHg 56%
    08:00 +5°C° 0 mm 2 m/s 762 mmHg 50%
    09:00 +7°C° 0 mm 2 m/s 762 mmHg 44%
    10:00 +8°C° 0 mm 2 m/s 762 mmHg 40%
    11:00 +9°C° 0 mm 2 m/s 761 mmHg 37%
    12:00 +10°C° 0 mm 2 m/s 761 mmHg 34%
    13:00 +12°C° 0 mm 1 m/s 761 mmHg 33%
    14:00 +12°C° 0 mm 1 m/s 760 mmHg 32%
    15:00 +13°C° 0 mm 1 m/s 760 mmHg 31%
    16:00 +12°C° 0 mm 1 m/s 760 mmHg 36%
    17:00 +11°C° 0 mm 1 m/s 760 mmHg 41%
    18:00 +11°C° 0 mm 1 m/s 760 mmHg 46%
    19:00 +10°C° 0 mm 1 m/s 760 mmHg 46%
    20:00 +8°C° 0 mm 2 m/s 760 mmHg 46%
    21:00 +7°C° 0 mm 2 m/s 760 mmHg 46%
    22:00 +7°C° 0 mm 2 m/s 760 mmHg 47%
    23:00 +5°C° 0 mm 3 m/s 760 mmHg 49%

    31 Martie, Duminică

    Timp Temperatura Precipitaţii Vânt Presiune Umiditate
    00:00 +5°C° 0 mm 3 m/s 760 mmHg 51%
    01:00 +4°C° 0 mm 3 m/s 759 mmHg 55%
    02:00 +3°C° 0 mm 3 m/s 759 mmHg 60%
    03:00 +3°C° 0 mm 3 m/s 759 mmHg 65%
    04:00 +2°C° 0 mm 3 m/s 758 mmHg 68%
    05:00 +2°C° 0 mm 3 m/s 758 mmHg 70%
    06:00 +1°C° 0 mm 3 m/s 758 mmHg 72%
    07:00 +3°C° 0 mm 5 m/s 757 mmHg 66%
    08:00 +5°C° 0 mm 6 m/s 757 mmHg 60%
    09:00 +8°C° 0 mm 7 m/s 757 mmHg 54%
    10:00 +9°C° 0 mm 8 m/s 756 mmHg 52%
    11:00 +11°C° 0 mm 8 m/s 756 mmHg 49%
    12:00 +12°C° 0 mm 9 m/s 755 mmHg 47%
    13:00 +12°C° 0 mm 9 m/s 755 mmHg 47%
    14:00 +12°C° 0 mm 9 m/s 754 mmHg 47%
    15:00 +12°C° 0 mm 10 m/s 753 mmHg 47%
    16:00 +11°C° 0 mm 9 m/s 753 mmHg 51%
    17:00 +10°C° 0 mm 8 m/s 753 mmHg 55%
    18:00 +9°C° 0 mm 8 m/s 753 mmHg 59%
    19:00 +7°C° 0 mm 8 m/s 752 mmHg 59%
    20:00 +8°C° 0 mm 7 m/s 752 mmHg 59%
    21:00 +6°C° 0 mm 7 m/s 752 mmHg 59%
    22:00 +6°C° 0 mm 7 m/s 751 mmHg 60%
    23:00 +6°C° 0 mm 7 m/s 750 mmHg 62%
    Arată mai mult